Lid_Strength_Index
3 3 4 7 12 14 16 15 13 13 13 12 11 11 12 12 11 13 8 8 7 6 4 0 -2 -2 -2 -2 -1 -1 -2 -2 -1 -1 -1 -1 -1 -1 -1 -1 -2 -1 -1 -1 -2 -2 -2 -2 -2
4 3 5 10 14 16 16 14 14 13 12 12 12 13 13 14 11 11 10 8 8 8 6 1 -2 -2 -2 -2 -2 -2 -1 -1 -2 -2 -2 -2 -1 -1 -1 -1 -1 -1 -1 -1 -2 -2 -2 -2 -2
4 5 8 13 16 16 16 14 13 13 12 12 13 12 14 14 12 11 11 9 10 10 8 3 1 0 -0 -0 -1 -2 -1 -2 -2 -2 -2 -2 -2 -2 -1 -1 -1 -1 -1 -2 -2 -2 -2 -2 -2
6 7 11 14 15 14 13 13 12 12 12 11 13 14 13 12 12 11 10 11 11 10 9 5 3 2 2 1 1 0 -0 -1 -1 -0 -0 -1 -2 -2 -2 -2 -1 -1 -1 -2 -2 -2 -2 -2 -2
9 11 14 16 15 13 13 13 12 12 13 13 13 14 14 12 12 12 12 12 12 12 10 9 5 4 3 3 2 2 1 1 1 1 1 -0 -1 -1 -1 -1 -2 -2 -2 -2 -2 -2 -2 -1 -1
10 12 15 16 16 14 13 13 12 13 12 13 14 14 14 12 13 13 13 13 12 12 11 10 7 6 5 5 4 4 3 3 3 3 3 3 2 1 -0 -1 -1 -2 -2 -2 -2 -2 -2 -2 -1
11 13 16 16 15 14 12 12 13 13 13 13 12 15 15 14 12 13 13 13 13 12 12 12 11 9 8 7 6 5 5 5 4 4 5 5 5 3 2 3 3 1 -0 -1 -2 -2 -1 -2 -2
12 12 16 16 15 15 12 13 13 13 13 12 13 15 16 14 13 13 14 14 14 13 13 13 13 12 12 11 8 7 7 7 6 6 6 7 7 5 5 5 4 3 3 2 1 -2 -2 -1 -1
10 14 15 15 15 14 13 13 14 14 14 15 14 14 14 13 14 15 16 15 15 13 14 14 13 13 13 12 11 10 9 8 8 8 8 9 10 8 8 7 6 5 5 4 4 3 1 -1 -1
12 14 14 13 14 14 13 13 13 14 16 16 16 15 14 14 16 16 16 16 16 16 15 15 14 14 14 12 13 13 12 12 11 11 10 10 10 9 9 9 8 7 6 6 5 3 2 1 -0
13 15 13 12 12 12 13 14 13 14 16 15 16 16 15 16 16 16 16 16 16 17 16 15 15 15 15 14 14 14 14 13 13 12 11 11 11 11 11 11 11 9 8 9 7 5 6 6 6
13 13 12 11 11 12 13 13 14 14 13 14 14 15 16 17 17 17 17 17 17 16 16 16 16 15 15 15 15 15 14 13 14 13 12 12 12 12 12 13 12 11 9 10 7 7 7 8 7
13 13 12 12 12 12 12 13 13 14 15 15 15 15 16 16 17 17 17 16 17 17 17 16 16 16 15 15 15 15 15 15 14 13 13 12 13 14 13 13 13 12 10 9 9 8 8 9 8
13 12 12 12 12 13 13 14 13 14 16 16 15 16 16 17 17 18 18 18 17 17 17 16 16 16 15 16 16 16 15 15 14 14 14 13 14 14 14 14 13 12 10 9 9 9 9 9 8
13 14 13 13 13 13 13 14 14 14 16 16 16 17 17 17 17 17 18 18 18 17 17 16 15 15 16 16 16 16 15 15 15 15 15 15 14 15 15 14 14 13 11 10 10 10 9 9 8
14 14 16 14 13 13 14 16 13 15 16 17 17 18 17 16 17 18 18 18 18 17 17 16 15 16 16 16 16 16 16 16 16 16 16 16 15 16 16 16 15 14 14 13 11 9 9 9 9
15 16 17 15 13 14 15 15 13 15 16 16 17 17 17 17 17 18 18 18 18 17 17 17 16 16 16 16 16 17 16 17 17 17 17 17 16 16 17 16 16 15 15 15 13 12 10 10 9
17 18 17 16 15 15 16 15 13 15 16 15 16 17 17 17 17 18 18 18 18 18 17 17 17 16 16 17 17 17 18 18 18 18 17 17 16 16 16 17 16 16 16 16 15 14 13 10 8
15 17 17 17 15 16 15 15 13 13 16 16 16 17 16 16 17 17 18 18 18 18 18 18 17 17 17 18 19 19 19 19 18 18 17 17 17 17 17 17 17 16 16 16 15 14 12 11 9
16 17 18 16 16 15 16 16 14 13 14 14 14 16 16 16 19 18 18 19 19 18 18 18 18 17 17 18 18 18 19 19 18 18 18 18 17 17 17 17 17 16 16 16 16 14 14 13 11
17 18 18 17 17 17 18 19 17 15 15 15 14 14 15 16 18 18 19 19 19 19 19 18 17 17 17 17 18 18 19 19 19 19 19 18 17 17 17 17 17 17 16 16 16 15 16 16 12
17 16 17 17 19 20 17 20 19 15 15 15 15 16 16 16 17 18 18 19 20 19 18 18 18 17 17 17 19 20 20 20 20 20 19 19 18 18 17 17 17 17 16 16 16 15 15 14 15
16 17 18 18 20 22 21 22 19 19 17 14 14 15 16 16 17 18 18 18 19 18 19 18 18 18 18 18 19 20 20 20 20 20 20 20 19 18 17 17 17 17 16 16 17 16 16 15 15
15 17 18 20 21 23 19 20 21 19 17 16 16 16 17 17 18 18 18 18 18 19 19 19 19 18 18 18 19 20 21 21 21 20 20 20 19 18 17 17 17 16 16 16 17 16 16 15 15
17 18 20 22 23 21 21 23 18 16 15 15 15 16 18 18 19 19 19 19 19 19 19 19 19 19 19 19 19 20 21 21 21 21 21 20 20 19 18 17 17 17 16 16 16 16 16 17 17
17 16 19 24 24 20 22 23 18 16 15 17 18 18 17 19 19 19 19 19 19 19 19 19 19 19 19 19 20 20 21 21 21 21 21 20 20 19 18 17 17 17 16 16 16 16 16 15 15
17 18 17 19 29 26 20 20 18 17 17 18 18 18 18 20 20 19 19 19 19 19 19 19 19 19 20 20 20 21 21 22 21 21 21 20 20 18 18 17 18 17 17 17 16 16 16 16 16
18 17 19 20 24 28 22 21 19 16 16 16 18 19 19 21 20 20 19 19 19 20 19 19 20 20 20 20 21 21 22 21 21 21 21 20 20 19 18 18 18 18 17 17 16 16 16 15 15
20 20 20 19 20 23 26 21 18 16 15 15 16 17 19 20 20 19 19 19 19 20 20 20 20 21 21 21 22 22 22 21 21 21 21 21 20 19 19 18 18 18 17 17 17 17 16 16 17
19 18 18 20 21 24 23 20 17 16 16 15 17 17 19 19 20 19 19 20 20 20 21 21 21 21 21 22 22 22 22 22 22 22 21 20 20 19 19 19 19 19 18 18 18 17 16 17 18